Flag for Germany Weather past 2 weeks in Bocholt, North Rhine-Westphalia, Germany

Now
73 °F

Thundershowers. Clear.


Feels Like: 68 °F
Forecast: 69 / 87 °F
Wind: 3 mph from North

Location: Niederrhein

Current Time: Aug 30, 2015 at 10:59:18 PM

Latest Report: Aug 30, 2015 at 10:20 PM


Visibility: 6 mi

Pressure: 29.95 "Hg

Humidity: 100%

Dew point: 73 °F

Location of BocholtLocation

Historic Weather in Bocholt — Graph

°F

Bocholt temperature yesterday

Maximum temperature yesterday: 77 °F (at 4:50 PM)
Minimum temperature yesterday: 52 °F (at 4:50 AM)
Average temperature yesterday: 68 °F

Past Weeks' High & Low Weather Summary

 TemperatureHumidityPressure
High84 °F (Aug 30, 2:50 PM)100% (Aug 15, 10:20 PM)30.24 "Hg (Aug 15, 10:20 PM)
Low52 °F (Aug 20, 5:50 AM)30% (Aug 23, 2:20 PM)29.50 "Hg (Aug 24, 3:20 PM)
Average66 °F74%29.97 "Hg
* Reported Aug 15 9:20 PM — Aug 30 9:20 PM, Bocholt, Weather by CustomWeather, © 2015

Note: Actual official high and low records may vary slightly from our data, if they occured in-between our weather recording intervals... More about our weather records

Advertising

Bocholt weather history for previous 24 hours

 ConditionsComfort  
Time TempWeatherWind HumidityBarometerVisibility
9:20 PM
Sun, Aug 30
75 °FSunny.3 mph94%29.98 "Hg10 mi
8:50 PM75 °FPassing clouds.5 mph94%29.98 "HgN/A
8:20 PM77 °FSunny.3 mph89%29.98 "Hg10 mi
7:50 PM77 °FSunny.3 mph89%29.98 "Hg10 mi
7:20 PM79 °FSunny.3 mph84%29.98 "Hg10 mi
6:50 PM81 °FPassing clouds.6 mph79%29.98 "HgN/A
6:20 PM82 °FSunny.2 mph70%29.98 "Hg10 mi
5:50 PM84 °FSunny.3 mph62%29.98 "Hg10 mi
5:20 PM84 °FPassing clouds.5 mph62%29.98 "HgN/A
4:50 PM84 °FPassing clouds.5 mph58%29.98 "HgN/A
4:20 PM84 °FPassing clouds.7 mph62%29.98 "HgN/A
3:50 PM84 °FPassing clouds.7 mph62%29.98 "HgN/A
3:20 PM84 °FPassing clouds.7 mph58%29.98 "HgN/A
2:50 PM84 °FPassing clouds.6 mph58%29.98 "HgN/A
2:20 PM82 °FSunny.6 mph62%29.98 "Hg10 mi
1:50 PM82 °FPassing clouds.6 mph62%29.98 "HgN/A
1:20 PM82 °FPassing clouds.6 mph62%30.01 "HgN/A
12:50 PM81 °FPassing clouds.6 mph66%30.01 "HgN/A
12:20 PM79 °FPassing clouds.6 mph74%30.01 "HgN/A
11:50 AM77 °FSunny.3 mph79%30.01 "Hg10 mi
11:20 AM75 °FSunny.3 mph74%30.01 "Hg10 mi
10:50 AM73 °FPassing clouds.5 mph83%30.01 "HgN/A
10:20 AM70 °FPassing clouds.10 mph88%30.01 "HgN/A
9:50 AM68 °FPassing clouds.9 mph88%30.01 "HgN/A
9:20 AM66 °FClear.9 mph100%30.04 "Hg5 mi
8:50 AM63 °FThunderstorms. Scattered clouds.22 mph100%30.09 "Hg4 mi
8:20 AM63 °FFog.5 mph100%30.04 "Hg2 mi
7:50 AM63 °FFog.3 mph100%30.04 "Hg3 mi
7:20 AM61 °FFog.5 mph100%30.04 "Hg3 mi
6:50 AM63 °FFog.5 mph100%30.04 "Hg3 mi
6:20 AM63 °FClear.7 mph100%30.04 "Hg4 mi
5:50 AM63 °FPassing clouds.6 mph100%30.04 "HgN/A
5:20 AM63 °FPassing clouds.6 mph94%30.07 "HgN/A
4:50 AM63 °FThundershowers. Passing clouds.3 mph100%30.07 "Hg4 mi
11:50 PM
Sat, Aug 29
66 °FClear.3 mph78%30.09 "Hg10 mi
10:50 PM68 °FClear.3 mph73%30.12 "Hg10 mi
10:20 PM68 °FSunny.3 mph73%30.12 "Hg10 mi
Weather by CustomWeather, © 2015

See weather overviewHow to use our weather pages